EW4885 Weather Reports


time (UTC)temp
F
wind
direction
speed
knots
gust
knots
rain 1hr
in
rain 24hr
in
rain mn
in
humidity
%
barometer
mb
20260904003042 60 121 0.0 0.0 0.00 0.00 0.00 84 1021.0
20260904001541 60 121 0.0 0.0 0.00 0.00 0.00 83 1021.1
20260903234538 61 121 0.0 0.0 0.00 0.00 0.00 83 1021.3
20260903233048 61 121 0.0 0.0 0.00 0.00 0.00 82 1021.3
20260903231534 62 121 0.0 0.0 0.00 0.00 0.00 81 1021.3
20260903230033 62 121 0.0 0.0 0.00 0.00 0.00 80 1021.2
20260903224540 63 121 0.0 0.0 0.00 0.00 0.00 80 1021.3
20260903223043 63 121 0.0 0.0 0.00 0.00 0.00 79 1021.4
20260903221528 64 121 0.0 0.0 0.00 0.00 0.00 78 1021.4
20260903220024 64 121 0.0 0.0 0.00 0.00 0.00 77 1021.3
20260903214524 65 121 0.0 0.0 0.00 0.00 0.00 75 1021.3
20260903213039 65 120 0.0 0.0 0.00 0.00 0.00 74 1021.5
20260903211526 66 121 0.0 0.0 0.00 0.00 0.00 74 1021.5
20260903210023 66 121 0.0 0.0 0.00 0.00 0.00 73 1021.5
20260903204522 67 121 0.0 1.7 0.00 0.00 0.00 72 1021.6
20260903203028 67 122 0.0 0.0 0.00 0.00 0.00 69 1021.5
20260903201522 68 122 0.0 1.7 0.00 0.00 0.00 68 1021.5
20260903200021 69 68 0.9 1.7 0.00 0.00 0.00 68 1021.5
20260903194620 70 67 0.9 1.7 0.00 0.00 0.00 65 1021.5
20260903193020 71 67 0.9 2.6 0.00 0.00 0.00 62 1021.4
20260903191556 72 5 0.9 1.7 0.00 0.00 0.00 61 1021.3
20260903190100 74 360 0.0 0.0 0.00 0.00 0.00 58 1021.1
20260903184556 75 360 0.0 0.0 0.00 0.00 0.00 54 1020.9
20260903183055 77 360 0.0 1.7 0.00 0.00 0.00 50 1020.8
20260903181556 79 355 0.9 2.6 0.00 0.00 0.00 46 1020.8
20260903180057 80 355 0.9 3.5 0.00 0.00 0.00 44 1020.9
20260903174554 81 355 0.9 2.6 0.00 0.00 0.00 42 1020.7
20260903173053 82 355 1.7 4.3 0.00 0.00 0.00 40 1020.8
20260903171601 83 316 2.6 5.2 0.00 0.00 0.00 38 1020.7
20260903164551 84 16 2.6 5.2 0.00 0.00 0.00 37 1020.9
20260903163050 84 360 4.3 7.8 0.00 0.00 0.00 36 1020.8
20260903161549 85 28 1.7 7.0 0.00 0.00 0.00 36 1020.9
20260903160050 86 51 0.9 5.2 0.00 0.00 0.00 35 1020.9
20260903154554 86 317 3.5 8.7 0.00 0.00 0.00 35 1021.0
20260903153047 86 307 2.6 8.7 0.00 0.00 0.00 35 1021.0
20260903151546 86 348 1.7 5.2 0.00 0.00 0.00 37 1021.0
20260903150057 86 321 4.3 8.7 0.00 0.00 0.00 36 1021.0
20260903144543 85 360 1.7 6.1 0.00 0.00 0.00 37 1021.0
20260903143042 85 5 2.6 7.0 0.00 0.00 0.00 38 1021.2
20260903141541 86 340 4.3 7.0 0.00 0.00 0.00 37 1021.2
20260903140041 85 293 3.5 7.8 0.00 0.00 0.00 36 1021.3
20260903134545 85 256 1.7 6.1 0.00 0.00 0.00 37 1021.3
20260903133038 85 343 2.6 5.2 0.00 0.00 0.00 37 1021.4
20260903131538 85 355 3.5 6.1 0.00 0.00 0.00 37 1021.5
20260903130043 85 108 0.9 5.2 0.00 0.00 0.00 36 1021.6
20260903124534 84 54 4.3 11.3 0.00 0.00 0.00 36 1021.7
20260903123040 84 171 1.7 5.2 0.00 0.00 0.00 39 1021.8
20260903121552 84 340 2.6 7.0 0.00 0.00 0.00 39 1021.9
20260903120029 82 32 4.3 8.7 0.00 0.00 0.00 39 1022.0
20260903114527 82 319 1.7 6.1 0.00 0.00 0.00 40 1022.1
20260903113026 82 78 2.6 9.6 0.00 0.00 0.00 42 1022.2
20260903111525 81 304 3.5 7.8 0.00 0.00 0.00 43 1022.4
20260903110020 81 331 3.5 8.7 0.00 0.00 0.00 42 1022.8
20260903104523 81 311 4.3 7.8 0.00 0.00 0.00 43 1023.0
20260903103014 80 339 1.7 6.1 0.00 0.00 0.00 44 1022.8
20260903101510 80 59 2.6 6.1 0.00 0.00 0.00 45 1023.0
20260903100017 78 360 2.6 7.0 0.00 0.00 0.00 49 1023.0
20260903094502 78 17 2.6 6.1 0.00 0.00 0.00 50 1023.2
20260903093103 77 329 2.6 5.2 0.00 0.00 0.00 53 1023.2
20260903091559 76 31 1.7 4.3 0.00 0.00 0.00 53 1023.3
20260903090053 75 86 0.9 5.2 0.00 0.00 0.00 56 1023.2
20260903084546 74 30 2.6 5.2 0.00 0.00 0.00 58 1023.3
20260903083043 73 18 1.7 3.5 0.00 0.00 0.00 61 1023.2
20260903081539 71 28 1.7 3.5 0.00 0.00 0.00 62 1023.1
20260903080036 69 22 1.7 5.2 0.00 0.00 0.00 65 1023.1
20260903074533 67 16 1.7 4.3 0.00 0.00 0.00 71 1023.1
20260903073029 65 346 1.7 3.5 0.00 0.00 0.00 76 1023.1
20260903071521 62 5 0.0 0.0 0.00 0.00 0.00 83 1022.9
20260903070016 59 99 0.0 0.0 0.00 0.00 0.00 88 1022.8
20260903064511 58 99 0.0 0.0 0.00 0.00 0.00 92 1022.8
20260903063006 56 99 0.0 0.0 0.00 0.00 0.00 94 1022.8
20260903061502 55 99 0.0 0.0 0.00 0.00 0.00 95 1022.8
20260903060120 54 99 0.0 0.0 0.00 0.00 0.00 94 1022.6
20260903054554 54 99 0.0 0.0 0.00 0.00 0.00 94 1022.5
20260903053053 53 99 0.0 0.0 0.00 0.00 0.00 93 1022.4
20260903051549 53 99 0.0 0.0 0.00 0.00 0.00 93 1022.3
20260903050047 53 99 0.0 0.0 0.00 0.00 0.00 92 1022.2
20260903044545 54 99 0.0 0.0 0.00 0.00 0.00 92 1022.0
20260903043044 54 99 0.0 0.0 0.00 0.00 0.00 92 1021.7
20260903041542 54 99 0.0 0.0 0.00 0.00 0.00 92 1021.8
20260903040041 54 99 0.0 0.0 0.00 0.00 0.00 92 1021.8
20260903034538 55 99 0.0 0.0 0.00 0.00 0.00 91 1021.8
20260903033037 55 99 0.0 0.0 0.00 0.00 0.00 91 1021.8
20260903031542 55 99 0.0 0.0 0.00 0.00 0.00 91 1021.9
20260903030046 55 99 0.0 0.0 0.00 0.00 0.00 91 1021.9
20260903024533 56 99 0.0 0.0 0.00 0.00 0.00 90 1021.8
20260903023033 56 99 0.0 0.0 0.00 0.00 0.00 90 1021.7
20260903021540 56 99 0.0 0.0 0.00 0.00 0.00 90 1021.6
20260903020034 57 99 0.0 0.0 0.00 0.00 0.00 89 1021.6
20260903014526 57 99 0.0 0.0 0.00 0.00 0.00 89 1021.7
20260903013025 57 99 0.0 0.0 0.00 0.00 0.00 89 1021.6
20260903011530 57 99 0.0 0.0 0.00 0.00 0.00 88 1021.5
20260903010030 58 99 0.0 0.0 0.00 0.00 0.00 87 1021.6
20260903004526 58 99 0.0 0.0 0.00 0.00 0.00 87 1021.5